KLEX Airport Diagram

We have created a template for each of the higher traffic airports in the vZID airspace. They include KCMH, KCRW, KCVG, KDAY, KIND, KLEX and KSDF. You wil find usefull information including the airport diagram, weather, and specific airport procedures.

KLEX Weather

[Source: ADDS]
METAR
KLEX 251854Z 22015G23KT 10SM FEW060 32/16 A3008 RMK AO2 PK WND 24028/1828 SLP175 T03220161 $ =
KLEX 251730Z 2518/2618 24012G22KT P6SM FEW050 FEW250 FM260000 21006KT P6SM FEW250 FM261400 24010G18KT P6SM FEW045 SCT250
TAF
KLEX 251730Z 2518/2618 24012G22KT P6SM FEW050 FEW250 FM260000 21006KT P6SM FEW250 FM261400 24010G18KT P6SM FEW045 SCT250 =

KLEX Operations

Calm wind runway at KLEX is Runway 22, up to and including 10kts.

Default scenery shows Runway 8/26, which crosses Runway 22. When taxiing to Runway 22, clearance to cross Runway 26 not required.

Updated scenery available at www.flightsim.com.

 

JSN Epic template designed by JoomlaShine.com